sat.trackr.live / text

‹ back to catalog

STARLINK-37676

NORAD 69313 · 2026-119T

PAYLOAD ACTIVE UNKNOWN

§ Identity

Operator
Country
US
Launch date
2026-05-30
Launch site
AFWTR
Launch vehicle
Mass (kg)
RCS (m²)

Purposes: comms

External: N2YO · Heavens-Above · Gunter

§ Orbital elements

Epoch: 2026-09-20T00:39:39.513024Z

Period
93.91 min
Inclination
97.2848°
Eccentricity
0.0001491
Mean motion
15.33451958 rev/d
Perigee alt
464.5 km
Apogee alt
466.5 km
Semi-major
6,843.7 km
B*
3.3576e-4
RAAN
287.8077°
Arg perigee
109.2466°
Mean anomaly
250.8938°
Rev number
1,859

§ Raw data

STARLINK-376761 69313U 26119T   26263.02754066  .00010782  00000+0  33576-3 0  99942 69313  97.2848 287.8077 0001491 109.2466 250.8938 15.33451958 18596

JSON: /api/v1/satellites/69313 · /tle

For live sub-satellite position, see the globe view (requires WebGL).

§ Visibility from observer

Set your observer location to see the next 7 days of passes ≥ 10°. The values pass through the URL so the page stays shareable.

No JS? Fill the form by hand. The geolocation button needs JavaScript.